Location: Detroit
(42.3310°N, 83.0460°W)
Time: 08:20:41
(UTC-04:00)

Explorer 11/Cluster Stage 4 - Pass Details

Date: 10 February 2023
Orbit: 466 x 1241 km, 28.8° (Epoch: 02 April)

Event Time Altitude Azimuth Distance (km) Brightness Sun altitude
Exits shadow 03:27:11 11° 121° (ESE) 2,857 9.6 -45.6°
Drops below altitude 10° 03:27:38 10° 119° (ESE) 2,981 9.8 -45.5°
Sets 03:31:15 0° 106° (ESE) 4,042 10.7 -44.9°
